Lid_Strength_Index
5 6 9 8 6 5 5 4 4 5 3 4 5 3 2 0 -0 -1 -1 -1 -1 -1 -1 -1 -1 -1 -1 -1 -1 -1 -1 -1
7 8 7 7 6 5 5 4 4 4 5 3 2 2 1 -0 -0 -0 -0 -1 -1 -1 -1 -1 -1 -1 -1 -1 -1 -1 -1 -1
6 8 7 6 6 4 5 5 4 4 5 5 2 1 0 0 -0 0 -0 -1 -1 -1 -1 -1 -1 -1 -1 -1 -1 -1 -1 -1
8 8 7 6 6 4 5 4 4 4 5 4 1 1 1 0 -0 -0 -0 -1 -1 -1 -1 -1 -1 -1 -1 -1 -1 -1 -1 -1
8 9 8 7 5 4 5 5 5 3 5 4 3 1 0 -0 -0 -0 -1 -1 -1 -1 -1 -1 -1 -1 -1 -1 -1 -1 -1 -1
9 9 9 6 5 5 4 4 3 2 6 5 3 1 0 0 0 -0 -0 -1 -1 -1 -1 -1 -1 -1 -1 -1 -1 -1 -1 -1
8 8 8 4 5 3 2 4 4 3 4 3 2 1 1 1 1 1 0 -0 -1 -1 -1 -1 -1 -1 -1 -1 -1 -1 -1 -1
7 7 7 5 5 5 4 4 5 4 3 2 2 2 2 2 2 1 1 0 -1 -1 -1 -1 -1 -1 -1 -1 -1 -2 -2 -2
6 5 6 5 5 4 5 7 5 5 4 3 2 2 2 2 2 1 1 -1 -0 -1 -1 -1 -1 -1 -1 -1 -1 -1 -1 -1
4 4 4 6 5 6 6 6 3 3 3 3 3 3 3 2 2 1 1 1 -0 -0 -1 -1 -1 -1 -1 -1 -1 -1 -1 -1
4 4 4 5 6 6 6 4 3 3 3 3 3 3 2 2 1 1 1 0 1 -0 -1 -1 -1 -1 -1 -1 -1 -1 -1 -1
4 5 5 6 6 6 6 4 4 4 4 3 3 3 2 2 2 1 1 1 -0 0 0 -1 -0 -1 -1 -2 -2 -1 -1 -1
5 5 6 5 8 8 5 4 5 5 4 3 3 2 2 2 2 1 1 0 0 -0 -1 -0 -0 -0 -0 -0 -0 -0 -1 -1
6 5 5 6 11 7 4 5 6 5 4 4 3 2 1 1 1 0 0 0 -0 -0 -0 0 0 -1 -1 -1 -1 -1 -1 -1
8 5 6 6 10 7 5 5 6 5 4 4 3 2 1 1 1 0 0 -0 -0 -0 -0 -0 -1 -1 -1 -1 -1 -1 -1 -1
8 7 6 8 9 7 5 5 5 5 4 4 3 3 2 1 0 0 -0 -0 -0 -0 -1 -1 -1 -1 -1 -1 -2 -1 -1 -1
8 7 8 9 9 8 6 5 5 5 5 4 4 3 2 1 1 0 0 -0 -0 -0 -1 -0 0 0 0 1 -0 -0 -1 -2
8 7 7 9 9 8 7 6 5 5 5 4 4 3 2 1 1 1 0 -0 -0 -0 -1 -1 -0 -1 -0 -0 -0 -1 -1 -1
9 8 7 8 10 9 7 6 5 4 4 4 4 4 3 2 1 1 1 0 -0 -1 -1 -1 -1 -1 -1 -1 -0 0 -0 -0
8 8 10 7 12 10 8 8 7 6 5 4 4 3 3 2 2 1 1 0 -0 -1 -1 -1 -1 -1 -0 1 1 0 0 -0